Weather observations for the past three days for
Tucson Ryan Field Airport
Imperial (Metric)
Date Time (mst) Wind (mph) Vis. (mi.) Weather Sky Cond. Temperature (ºF) Relative Humidity Wind Chill (°F) Heat Index (°F) Pressure Precipitation (in)
Air Dwpt 6 hour altimeter (in) sea level (mb) 1 hr 3 hr 6 hr
Max. Min.
17 16:56 NW 12 10.00 Fair CLR 102.2 51.8 18% 100 29.86 0.0
17 14:51 NW 5 G 14 10.00 Fair CLR 100.4 51.8 20% 98 29.91 0.0
17 13:45 W 6 G 13 10.00 Fair CLR 98.6 51.8 21% 96 29.94 0.0
17 12:45 Calm 10.00 Fair CLR 96.8 53.6 23% 95 29.96 0.0
17 11:50 NW 6 G 16 10.00 Fair CLR 95 53.6 25% 93 29.99 0.0
17 10:55 NW 9 G 16 10.00 Fair CLR 93.2 53.6 26% 91 30 0.0
17 07:45 E 6 10.00 Fair CLR 84.2 57.2 40% 83 30.01 0.0
17 06:45 E 7 10.00 Fair CLR 78.8 57.2 48% 80 30 0.0
17 05:45 SE 7 10.00 Fair CLR 75.2 59 57% 78 29.98 0.0
16 19:45 N 10 10.00 Fair CLR 75.2 53.6 47% 78 29.88 0.0
16 18:45 NW 9 G 15 10.00 Fair CLR 96.8 53.6 23% 95 29.87 0.0
16 17:45 NW 15 10.00 Fair CLR 100.4 53.6 21% 98 29.85 0.0
16 16:45 N 13 10.00 Fair CLR 100.4 53.6 21% 98 29.86 0.0
16 15:45 NW 10 G 18 10.00 Fair CLR 100.4 53.6 21% 98 29.88 0.0
16 14:45 NW 10 G 13 10.00 Fair CLR 98.6 53.6 22% 96 29.92 0.0
16 13:45 NW 10 10.00 Fair CLR 95 55.4 26% 93 29.95 0.0
16 12:51 NW 12 G 21 10.00 Fair CLR 96.8 57.2 27% 96 29.98 0.0
16 11:57 NW 8 G 15 10.00 Fair CLR 93.2 55.4 28% 91 30 0.0
16 10:48 NW 7 G 16 10.00 Fair CLR 91.4 59 34% 91 30.02 0.0
16 09:45 SW 3 10.00 Fair CLR 87.8 57.2 35% 87 30.03 0.0
16 08:45 E 9 10.00 Fair CLR 80.6 60.8 51% 81 30.03 0.0
16 05:45 N 5 10.00 Fair CLR 75.2 60.8 61% 77 29.99 0.0
15 19:45 N 5 10.00 Fair CLR 95 55.4 26% 93 29.93 0.0
15 18:45 N 9 G 15 10.00 Fair CLR 96.8 55.4 25% 95 29.9 0.0
15 17:45 NW 15 G 22 10.00 Fair CLR 98.6 55.4 24% 97 29.87 0.0
15 16:45 N 8 G 18 10.00 Fair CLR 98.6 55.4 24% 97 29.88 0.0
15 15:50 NW 16 G 22 10.00 Fair CLR 96.8 55.4 25% 95 29.89 0.0
15 14:46 NW 14 G 22 10.00 Fair CLR 96.8 57.2 27% 96 29.93 0.0
15 13:45 NW 13 G 20 10.00 Fair CLR 91.4 44.6 20% 88 29.97 0.0
15 12:45 NW 8 G 18 10.00 Fair CLR 78.8 44.6 30% 79 30 0.0
15 11:48 W 12 G 21 10.00 Fair CLR 89.6 57.2 33% 88 30.03 0.0
15 10:52 NW 9 G 17 10.00 Fair CLR 91.4 59 34% 91 30.05 0.0
15 09:45 Vrbl 7 10.00 Fair CLR 87.8 60.8 40% 88 30.08 0.0
15 08:45 Vrbl 7 10.00 Fair CLR 86 60.8 43% 86 30.08 0.0
15 07:45 NE 3 10.00 Fair CLR 82.4 62.6 51% 83 30.09 0.0
15 06:45 Calm 10.00 Fair CLR 77 62.6 61% 79 30.07 0.0
15 05:45 Calm 10.00 Fair CLR 77 59 54% 79 30.07 0.0
Date Time (mst) Wind (mph) Vis. (mi.) Weather Sky Cond. Air Dwpt Max. Min. Relative Humidity Wind Chill (°F) Heat Index (°F) altimeter (in) sea level (mb) 1 hr 3 hr 6 hr
6 hour
Temperature (ºF) Pressure Precipitation (in)